TimeMDT,TemperatureF,Dew PointF,Humidity,Sea Level PressureIn,VisibilityMPH,Wind Direction,Wind SpeedMPH,Gust SpeedMPH,PrecipitationIn,Events,Conditions,WindDirDegrees,DateUTC
12:53 AM,35.1,21.0,57,29.57,10.0,WSW,8.1,-,N/A,,Clear,240,2013-03-21 06:53:00
1:53 AM,35.1,21.0,57,29.56,10.0,SW,4.6,-,N/A,,Clear,230,2013-03-21 07:53:00
2:53 AM,41.0,19.9,43,29.52,10.0,Calm,Calm,-,N/A,,Clear,0,2013-03-21 08:53:00
3:53 AM,35.1,21.0,57,29.49,10.0,West,9.2,-,N/A,,Clear,260,2013-03-21 09:53:00
4:53 AM,39.9,21.9,49,29.47,10.0,WNW,6.9,-,N/A,,Overcast,300,2013-03-21 10:53:00
5:53 AM,41.0,23.0,49,29.49,10.0,NW,6.9,-,N/A,,Mostly Cloudy,320,2013-03-21 11:53:00
6:53 AM,37.0,26.1,65,29.52,10.0,NNW,11.5,27.6,N/A,,Mostly Cloudy,330,2013-03-21 12:53:00
7:53 AM,34.0,28.0,79,29.56,10.0,NNW,25.3,33.4,N/A,,Clear,330,2013-03-21 13:53:00
8:53 AM,33.1,28.0,82,29.58,10.0,NNW,25.3,40.3,N/A,,Overcast,340,2013-03-21 14:53:00
9:53 AM,34.0,27.0,75,29.61,10.0,NNW,26.5,39.1,N/A,,Scattered Clouds,330,2013-03-21 15:53:00
10:38 AM,32.0,26.6,80,29.60,1.8,NNW,26.5,40.3,0.00,Snow,Light Snow,340,2013-03-21 16:38:00
10:53 AM,32.0,28.0,85,29.64,1.2,NNW,27.6,39.1,0.00,Snow,Light Snow,330,2013-03-21 16:53:00
11:03 AM,32.0,26.6,80,29.61,1.2,NNW,25.3,40.3,0.00,Snow,Light Snow,330,2013-03-21 17:03:00
11:15 AM,30.2,26.6,86,29.62,1.0,NNW,28.8,40.3,0.00,Snow,Light Snow,330,2013-03-21 17:15:00
11:26 AM,30.2,26.6,86,29.63,0.8,NNW,27.6,39.1,0.00,Snow,Light Snow,330,2013-03-21 17:26:00
11:48 AM,30.2,26.6,86,29.64,0.5,NNW,28.8,41.4,0.00,Fog-Snow,Snow,330,2013-03-21 17:48:00
11:53 AM,30.0,26.1,85,29.70,0.5,NNW,27.6,41.4,0.00,Fog-Snow,Snow,330,2013-03-21 17:53:00
12:09 PM,30.2,26.6,86,29.65,0.8,NNW,24.2,38.0,0.00,Snow,Light Snow,330,2013-03-21 18:09:00
12:32 PM,30.2,26.6,86,29.66,1.2,NNW,21.9,35.7,0.00,Snow,Light Snow,330,2013-03-21 18:32:00
12:53 PM,30.0,26.1,85,29.72,1.0,NNW,26.5,35.7,0.00,Snow,Light Snow,330,2013-03-21 18:53:00
12:59 PM,28.4,26.6,93,29.68,0.8,NNW,26.5,38.0,0.00,Snow,Light Snow,330,2013-03-21 18:59:00
1:27 PM,28.4,24.8,86,29.68,0.8,NNW,29.9,40.3,0.00,Snow,Light Snow,330,2013-03-21 19:27:00
1:53 PM,28.9,25.0,85,29.73,0.8,NNW,23.0,38.0,0.00,Snow,Light Snow,340,2013-03-21 19:53:00
2:07 PM,30.2,26.6,86,29.68,0.8,NNW,24.2,39.1,0.00,Snow,Light Snow,330,2013-03-21 20:07:00
2:14 PM,30.2,24.8,80,29.68,1.0,NNW,23.0,36.8,0.00,Snow,Light Snow,330,2013-03-21 20:14:00
2:21 PM,30.2,24.8,80,29.69,1.5,NNW,25.3,36.8,0.00,Snow,Light Snow,330,2013-03-21 20:21:00
2:25 PM,30.2,24.8,80,29.69,2.0,NNW,25.3,38.0,0.00,Snow,Light Snow,330,2013-03-21 20:25:00
2:31 PM,30.2,24.8,80,29.69,3.0,NNW,25.3,38.0,0.00,Snow,Light Snow,340,2013-03-21 20:31:00
2:53 PM,30.0,25.0,82,29.70,7.0,North,24.2,38.0,0.00,,Overcast,350,2013-03-21 20:53:00
3:53 PM,30.0,25.0,82,29.73,10.0,North,26.5,36.8,N/A,,Overcast,350,2013-03-21 21:53:00
4:53 PM,32.0,21.9,66,29.73,10.0,North,24.2,36.8,N/A,,Mostly Cloudy,350,2013-03-21 22:53:00
5:53 PM,32.0,21.9,66,29.75,10.0,North,10.4,24.2,N/A,,Overcast,350,2013-03-21 23:53:00
6:53 PM,30.9,21.0,67,29.80,10.0,North,5.8,-,N/A,,Overcast,360,2013-03-22 00:53:00
7:53 PM,28.0,19.9,72,29.85,10.0,SW,4.6,-,N/A,,Overcast,230,2013-03-22 01:53:00
8:53 PM,30.0,19.0,64,29.85,10.0,Calm,Calm,-,N/A,,Partly Cloudy,0,2013-03-22 02:53:00
9:53 PM,28.9,18.0,64,29.86,10.0,Calm,Calm,-,N/A,,Mostly Cloudy,0,2013-03-22 03:53:00
10:53 PM,25.0,17.1,72,29.89,10.0,Variable,3.5,-,N/A,,Partly Cloudy,0,2013-03-22 04:53:00
11:53 PM,27.0,12.9,56,29.90,10.0,North,3.5,-,N/A,,Partly Cloudy,10,2013-03-22 05:53:00